Regional Weather Roundup
Issued by NWS

Home | Current Version | Previous Version | Text Only | Print | Product List | Glossary Off
Versions: 1 2 3 4 5 6 7 8 9 10 11 12 13 14 15 16 17 18 19 20 21 22 23 24 25 26 27 28 29 30 31 32 33 34 35 36 37 38 39 40 41 42 43 44 45 46 47 48 49 50

000
ASUS45 KSLC 171410
RWRUT

UTAH REGIONAL WEATHER ROUNDUP
NATIONAL WEATHER SERVICE SALT LAKE CITY UT
800 AM MDT WED SEP 17 2014

UTZ001>011-023>025-171500-

NORTHERN UTAH

CITY           SKY/WX    TMP DP  RH WIND       PRES   REMARKS
HILL AFB       PTCLDY    64  41  43 E16       30.01R
LOGAN          CLEAR     50  45  83 CALM      30.01R
OGDEN          CLEAR     65  42  43 S10       29.98R
PROVO AIRPORT  CLEAR     57  45  62 SE12      30.05R
SALT LAKE CITY PTCLDY    70  43  37 SE9       29.97R
VERNAL         SUNNY     54  44  69 CALM      30.13R
WENDOVER       CLEAR     63  37  39 W5        29.96R
HEBER CITY     CLEAR     45  43  93 CALM      30.14R
WEST JORDAN    CLEAR     70  41  35 S18G24    30.00R

$$

UTZ012>022-026-027-171500-

SOUTHERN UTAH

CITY           SKY/WX    TMP DP  RH WIND       PRES   REMARKS
BRYCE CANYON   MOCLDY    48  45  89 SW3       30.27R
CEDAR CITY     CLEAR     59  50  72 E5        30.11R
MILFORD        CLEAR     64  49  57 SW15      30.06R
MOAB/CYNLANDS  SUNNY     65  44  46 SE5       30.05R
PRICE          PTCLDY    60  37  42 NE5       30.14R
ST GEORGE      SUNNY     73  54  49 CALM      29.97R

$$

REGIONAL REPORTS     COLORADO/ARIZONA

CITY           SKY/WX    TMP DP  RH WIND       PRES   REMARKS
CRAIG, CO      SUNNY     46  41  82 CALM      30.21R
GRAND JUNCTION MOSUNNY   60  42  51 S9        30.11R
RIFLE          SUNNY     51  43  74 E3        30.19R
MONTROSE       PTSUNNY   54  43  66 S6        30.20R
CORTEZ         SUNNY     53  49  86 CALM      30.20R
PAGE, AZ       MOCLDY    71  54  54 VRB3      30.06R
GRAND CANYON   PTCLDY    52  49  89 CALM      30.21R
KINGMAN        CLEAR     65  59  81 S3        29.99R
FLAGSTAFF      CLOUDY    57  53  86 NE5       30.22R

$$

REGIONAL REPORTS    NEVADA/IDAHO/WYOMING

CITY           SKY/WX    TMP DP  RH WIND       PRES   REMARKS
LAS VEGAS, NV  PTCLDY    80  58  46 SE7       29.85R
ELY            CLEAR     53  38  56 SE9       30.15R
ELKO           PTCLDY    50  33  52 CALM      30.03R
POCATELLO, ID  PTCLDY    56  51  84 NW8       29.99R
BURLEY         MOCLDY    56  46  69 CALM      29.95R
EVANSTON, WY   PTCLDY    58  37  45 S7        30.19R
ROCK SPRINGS   SUNNY     53  36  52 E3        30.18R

$$


USA.gov is the U.S. government's official web portal to all federal, state and local government web resources and services.